• In Deutschland
  • Länderverzeichnis
  • Für 7 Tage
  • Wassertemperatur
  • Satellitenkarten
  • Wetterkarte
  • Widgets
  • user-avatar
    Anmelden

    Stündliche Wetter Albena

    Heute, 18 August, Freitag

    Zeit Temperatur Niederschläge Wind Luftdruck Luftfeuchtigkeit
    00:00 +22°C° 0 mm 4 m/S 745 mmHg 40%
    01:00 +22°C° 0 mm 4 m/S 745 mmHg 40%
    02:00 +22°C° 0 mm 5 m/S 745 mmHg 40%
    03:00 +22°C° 0 mm 5 m/S 745 mmHg 42%
    04:00 +21°C° 0 mm 5 m/S 745 mmHg 44%
    05:00 +21°C° 0 mm 5 m/S 745 mmHg 46%
    06:00 +23°C° 0 mm 5 m/S 745 mmHg 43%
    07:00 +25°C° 0 mm 5 m/S 746 mmHg 41%
    08:00 +27°C° 0 mm 5 m/S 746 mmHg 39%
    09:00 +29°C° 0 mm 5 m/S 746 mmHg 34%
    10:00 +32°C° 0 mm 5 m/S 746 mmHg 29%
    11:00 +35°C° 0 mm 6 m/S 746 mmHg 24%
    12:00 +35°C° 0 mm 6 m/S 746 mmHg 24%
    13:00 +35°C° 0 mm 6 m/S 746 mmHg 23%
    14:00 +36°C° 0 mm 6 m/S 746 mmHg 23%
    15:00 +35°C° 0 mm 6 m/S 746 mmHg 24%
    16:00 +34°C° 0 mm 6 m/S 746 mmHg 26%
    17:00 +33°C° 0 mm 6 m/S 746 mmHg 28%
    18:00 +30°C° 0 mm 5 m/S 746 mmHg 37%
    19:00 +27°C° 0 mm 4 m/S 746 mmHg 46%
    20:00 +25°C° 0 mm 3 m/S 746 mmHg 54%
    21:00 +24°C° 0 mm 3 m/S 746 mmHg 57%
    22:00 +24°C° 0 mm 3 m/S 746 mmHg 59%
    23:00 +22°C° 0 mm 3 m/S 746 mmHg 62%

    Morgen, 19 August, Samstag

    Zeit Temperatur Niederschläge Wind Luftdruck Luftfeuchtigkeit
    00:00 +22°C° 0 mm 3 m/S 746 mmHg 60%
    01:00 +22°C° 0 mm 3 m/S 746 mmHg 59%
    02:00 +21°C° 0 mm 3 m/S 746 mmHg 58%
    03:00 +21°C° 0 mm 4 m/S 746 mmHg 57%
    04:00 +21°C° 0 mm 4 m/S 746 mmHg 56%
    05:00 +21°C° 0 mm 4 m/S 746 mmHg 56%
    06:00 +23°C° 0 mm 4 m/S 746 mmHg 51%
    07:00 +26°C° 0 mm 4 m/S 746 mmHg 46%
    08:00 +27°C° 0 mm 5 m/S 746 mmHg 42%
    09:00 +30°C° 0 mm 5 m/S 746 mmHg 36%
    10:00 +33°C° 0 mm 5 m/S 746 mmHg 29%
    11:00 +35°C° 0 mm 5 m/S 746 mmHg 23%
    12:00 +35°C° 0 mm 5 m/S 746 mmHg 22%
    13:00 +36°C° 0 mm 5 m/S 746 mmHg 22%
    14:00 +36°C° 0 mm 6 m/S 745 mmHg 21%
    15:00 +35°C° 0 mm 6 m/S 745 mmHg 24%
    16:00 +34°C° 0 mm 6 m/S 745 mmHg 27%
    17:00 +34°C° 0 mm 6 m/S 745 mmHg 29%
    18:00 +30°C° 0 mm 5 m/S 745 mmHg 38%
    19:00 +28°C° 0 mm 4 m/S 745 mmHg 47%
    20:00 +25°C° 0 mm 3 m/S 745 mmHg 56%
    21:00 +24°C° 0 mm 3 m/S 745 mmHg 58%
    22:00 +24°C° 0 mm 3 m/S 745 mmHg 59%
    23:00 +22°C° 0 mm 3 m/S 745 mmHg 60%

    übermorgen, 20 August, Sonntag

    Zeit Temperatur Niederschläge Wind Luftdruck Luftfeuchtigkeit
    00:00 +22°C° 0 mm 3 m/S 745 mmHg 60%
    01:00 +21°C° 0 mm 3 m/S 745 mmHg 59%
    02:00 +21°C° 0 mm 3 m/S 745 mmHg 59%
    03:00 +21°C° 0 mm 4 m/S 745 mmHg 59%
    04:00 +20°C° 0 mm 4 m/S 744 mmHg 59%
    05:00 +20°C° 0 mm 4 m/S 744 mmHg 59%
    06:00 +22°C° 0 mm 4 m/S 745 mmHg 53%
    07:00 +25°C° 0 mm 4 m/S 745 mmHg 48%
    08:00 +27°C° 0 mm 4 m/S 745 mmHg 42%
    09:00 +28°C° 0 mm 4 m/S 745 mmHg 39%
    10:00 +30°C° 0 mm 4 m/S 745 mmHg 36%
    11:00 +33°C° 0 mm 4 m/S 745 mmHg 32%
    12:00 +34°C° 0 mm 4 m/S 745 mmHg 32%
    13:00 +34°C° 0 mm 4 m/S 744 mmHg 32%
    14:00 +35°C° 0 mm 4 m/S 744 mmHg 32%
    15:00 +34°C° 0 mm 4 m/S 744 mmHg 34%
    16:00 +34°C° 0 mm 4 m/S 743 mmHg 36%
    17:00 +33°C° 0 mm 4 m/S 743 mmHg 38%
    18:00 +30°C° 0 mm 3 m/S 743 mmHg 49%
    19:00 +27°C° 0 mm 3 m/S 743 mmHg 59%
    20:00 +25°C° 0 mm 2 m/S 743 mmHg 70%
    21:00 +24°C° 0 mm 2 m/S 743 mmHg 75%
    22:00 +23°C° 0 mm 1 m/S 743 mmHg 79%
    23:00 +22°C° 0 mm 1 m/S 743 mmHg 84%

    21 August, Montag

    Zeit Temperatur Niederschläge Wind Luftdruck Luftfeuchtigkeit
    00:00 +22°C° 0 mm 1 m/S 743 mmHg 83%
    01:00 +22°C° 0 mm 1 m/S 743 mmHg 82%
    02:00 +21°C° 0 mm 2 m/S 743 mmHg 82%
    03:00 +20°C° 0 mm 2 m/S 743 mmHg 81%
    04:00 +20°C° 0 mm 3 m/S 742 mmHg 80%
    05:00 +19°C° 0 mm 3 m/S 742 mmHg 80%
    06:00 +21°C° 0 mm 4 m/S 743 mmHg 74%
    07:00 +22°C° 0 mm 5 m/S 743 mmHg 69%
    08:00 +23°C° 0 mm 5 m/S 743 mmHg 63%
    09:00 +26°C° 0 mm 5 m/S 743 mmHg 56%
    10:00 +28°C° 0 mm 5 m/S 743 mmHg 48%
    11:00 +30°C° 0 mm 4 m/S 743 mmHg 41%
    12:00 +32°C° 0 mm 4 m/S 743 mmHg 39%
    13:00 +33°C° 0 mm 4 m/S 742 mmHg 36%
    14:00 +34°C° 0 mm 4 m/S 742 mmHg 34%
    15:00 +33°C° 0 mm 4 m/S 742 mmHg 37%
    16:00 +30°C° 0 mm 4 m/S 742 mmHg 40%
    17:00 +29°C° 0 mm 4 m/S 741 mmHg 43%
    18:00 +27°C° 0,3 mm 5 m/S 742 mmHg 52%
    19:00 +25°C° 0,3 mm 5 m/S 742 mmHg 61%
    20:00 +21°C° 0,3 mm 6 m/S 742 mmHg 70%
    21:00 +20°C° 0,4 mm 6 m/S 743 mmHg 76%
    22:00 +19°C° 0,4 mm 6 m/S 743 mmHg 81%
    23:00 +16°C° 0,4 mm 7 m/S 744 mmHg 86%

    22 August, Dienstag

    Zeit Temperatur Niederschläge Wind Luftdruck Luftfeuchtigkeit
    00:00 +16°C° 0,2 mm 6 m/S 744 mmHg 86%
    01:00 +16°C° 0,2 mm 6 m/S 744 mmHg 87%
    02:00 +15°C° 0,2 mm 5 m/S 744 mmHg 87%
    03:00 +15°C° 0 mm 5 m/S 745 mmHg 84%
    04:00 +15°C° 0 mm 6 m/S 745 mmHg 81%
    05:00 +14°C° 0 mm 6 m/S 745 mmHg 78%
    06:00 +15°C° 0 mm 6 m/S 745 mmHg 71%
    07:00 +17°C° 0 mm 7 m/S 746 mmHg 64%
    08:00 +18°C° 0 mm 7 m/S 746 mmHg 57%
    09:00 +21°C° 0 mm 6 m/S 746 mmHg 52%
    10:00 +23°C° 0 mm 6 m/S 746 mmHg 47%
    11:00 +25°C° 0 mm 5 m/S 746 mmHg 42%
    12:00 +26°C° 0 mm 4 m/S 746 mmHg 40%
    13:00 +26°C° 0 mm 3 m/S 746 mmHg 39%
    14:00 +27°C° 0 mm 2 m/S 745 mmHg 37%
    15:00 +26°C° 0 mm 3 m/S 745 mmHg 38%
    16:00 +26°C° 0 mm 3 m/S 745 mmHg 40%
    17:00 +26°C° 0 mm 3 m/S 745 mmHg 41%
    18:00 +24°C° 0,3 mm 3 m/S 745 mmHg 49%
    19:00 +21°C° 0,3 mm 4 m/S 746 mmHg 57%
    20:00 +19°C° 0,3 mm 4 m/S 746 mmHg 66%
    21:00 +19°C° 0,7 mm 3 m/S 746 mmHg 70%
    22:00 +18°C° 0,7 mm 2 m/S 746 mmHg 75%
    23:00 +17°C° 0,7 mm 2 m/S 746 mmHg 79%

    23 August, Mittwoch

    Zeit Temperatur Niederschläge Wind Luftdruck Luftfeuchtigkeit
    00:00 +16°C° 0 mm 2 m/S 746 mmHg 78%
    01:00 +16°C° 0 mm 3 m/S 746 mmHg 77%
    02:00 +15°C° 0 mm 4 m/S 746 mmHg 76%
    03:00 +14°C° 0 mm 4 m/S 747 mmHg 76%
    04:00 +14°C° 0 mm 4 m/S 747 mmHg 75%
    05:00 +14°C° 0 mm 4 m/S 747 mmHg 75%
    06:00 +15°C° 0 mm 4 m/S 747 mmHg 68%
    07:00 +18°C° 0 mm 4 m/S 748 mmHg 62%
    08:00 +19°C° 0 mm 3 m/S 748 mmHg 55%
    09:00 +21°C° 0 mm 3 m/S 748 mmHg 49%
    10:00 +24°C° 0 mm 3 m/S 748 mmHg 42%
    11:00 +26°C° 0 mm 2 m/S 749 mmHg 35%
    12:00 +27°C° 0 mm 2 m/S 748 mmHg 33%
    13:00 +28°C° 0 mm 2 m/S 748 mmHg 30%
    14:00 +29°C° 0 mm 2 m/S 748 mmHg 28%
    15:00 +28°C° 0 mm 3 m/S 748 mmHg 29%
    16:00 +28°C° 0 mm 4 m/S 748 mmHg 30%
    17:00 +28°C° 0 mm 4 m/S 748 mmHg 31%
    18:00 +26°C° 0 mm 4 m/S 748 mmHg 41%
    19:00 +22°C° 0 mm 4 m/S 748 mmHg 50%
    20:00 +20°C° 0 mm 3 m/S 749 mmHg 60%
    21:00 +20°C° 0 mm 3 m/S 749 mmHg 64%
    22:00 +19°C° 0 mm 3 m/S 749 mmHg 68%
    23:00 +19°C° 0 mm 2 m/S 749 mmHg 72%
    Mehr zeigen